Regional Weather Roundup
Issued by NWS

Home | Current Version | Previous Version | Text Only | Print | Product List | Glossary On
Versions: 1 2 3 4 5 6 7 8 9 10 11 12 13 14 15 16 17 18 19 20 21 22 23 24 25 26 27 28
000
ASUS46 KSEW 060210
RWRWA

WASHINGTON REGIONAL WEATHER ROUNDUP
NATIONAL WEATHER SERVICE SEATTLE WA
600 PM PST MON DEC 05 2016

NOTE:"FAIR" INDICATES FEW OR NO CLOUDS BELOW 12,000 FEET WITH NO
SIGNIFICANT WEATHER AND/OR OBSTRUCTIONS TO VISIBILITY.

WAZ507-509-555>559-060300-
SEATTLE, TACOMA, EVERETT, AND VICINITY

CITY           SKY/WX    TMP DP  RH WIND       PRES   REMARKS
EVERETT        CLOUDY    36  35  96 E6        30.00S
BOEING FIELD   LGT RAIN  37  37 100 SE7       30.02S
RENTON         CLOUDY    37  36  96 S5        30.02S
SEATAC AIRPORT CLOUDY    37  36  96 S5        30.01R
JBLM-MCCHORD   CLOUDY    37  37  99 SW6       30.01S
PUYALLUP       CLOUDY    36  36 100 CALM      30.01R
BREMERTON      CLOUDY    36  34  93 CALM      30.03S
JBLM-FT LEWIS  CLOUDY    37  37  99 S3        30.00S
TACOMA NARROWS CLOUDY    37  35  92 CALM      30.01S
$$

WAZ001-503-506-510-514-515-060300-
NORTH INTERIOR

CITY           SKY/WX    TMP DP  RH WIND       PRES   REMARKS
BELLINGHAM     MOCLDY    34  33  96 CALM      30.03R
FRIDAY HARBOR  CLOUDY    36  33  89 NE3       30.03S
EASTSOUND      MOCLDY    36  36 100 S12       30.00S
PORT ANGELES   LGT SNOW  32  32 100 SE5       30.01F VSB 3/4
EDIZ HOOK      RAIN      34  32  93 NW3       30.03S
PORT TOWNSEND    N/A     32  32 100 CALM      30.02S
NAS WHIDBEY    CLOUDY    39  32  76 E5        30.06R
ARLINGTON      CLOUDY    36  27  69 CALM      30.04S
BURLINGTON     NOT AVBL
$$

WAZ020-022-039-040-504-511-512-060300-
SOUTHWEST INTERIOR

CITY           SKY/WX    TMP DP  RH WIND       PRES   REMARKS
SHELTON        CLOUDY    35  33  92 N3        29.99S
OLYMPIA        CLOUDY    36  35  96 S8        30.01S
CHEHALIS       CLOUDY    37  36  93 S5        30.02R
KELSO          LGT RAIN  37  35  92 SE6       30.04S
VANCOUVER      CLOUDY    38  34  85 SE6       30.04S
SCAPPOOSE, OR  CLOUDY    37  34  89 CALM      30.03S
PORTLAND, OR   LGT RAIN  38  34  85 S8        30.05F
$$

WAZ021-516-517-060300-
WASHINGTON COAST

CITY           SKY/WX    TMP DP  RH WIND       PRES   REMARKS
FORKS          MOCLDY    32  32 100 NE3       29.99S
HOQUIAM        MOCLDY    36  36 100 N3        30.01R
ASTORIA, OR    LGT RAIN  40  34  79 NE9       30.01R
$$

WAZ019-023-024-040-567>569-060300-
CASCADE MOUNTAINS AND COLUMBIA GORGE

CITY           SKY/WX    TMP DP  RH WIND       PRES   REMARKS
STAMPEDE PASS  CLOUDY    21  20  96 VRB3      29.85S
TROUTDALE, OR  LGT RAIN  38  35  89 CALM      30.05S
THE DALLES, OR MIX PCPN  37  33  85 W5        30.03S
$$

WAZ026-027-041>044-520-521-060300-
EAST SLOPES

CITY           SKY/WX    TMP DP  RH WIND       PRES   REMARKS
OMAK           CLOUDY    28  21  75 CALM      30.06S
WENATCHEE      LGT SNOW  28  27  96 W3        30.02S FOG
ELLENSBURG     CLOUDY    30  26  85 SE3       29.96S
YAKIMA         MOCLDY    29  24  82 W6        29.99S
$$

WAZ028-034-035-060300-
COLUMBIA BASIN

CITY           SKY/WX    TMP DP  RH WIND       PRES   REMARKS
EPHRATA        LGT SNOW  31  26  82 N6        29.99F
MOSES LAKE     LGT SNOW  31  28  89 NE3       30.01S FOG
PASCO          CLOUDY    36  34  92 SE8       30.04F
HERMISTON, OR  CLOUDY    35  32  88 E5        30.01F
$$

WAZ036>038-060300-
NORTHEAST WASHINGTON

CITY           SKY/WX    TMP DP  RH WIND       PRES   REMARKS
SPOKANE GEIGER MOCLDY    28  22  78 E3        29.99S
SPOKANE FELTS  MOCLDY    30  23  75 CALM      30.02F
FAIRCHILD AFB  CLOUDY    27  25  93 E5        29.98S
COEURDALENE,ID MOCLDY    26  24  92 E3        30.02S
DEER PARK      CLOUDY    27  20  75 NE6       30.02S
$$

WAZ029>033-060300-
SOUTHEAST WASHINGTON

CITY           SKY/WX    TMP DP  RH WIND       PRES   REMARKS
PULLMAN        CLOUDY    30  22  72 E12       30.00S WCI  20
LEWISTON, ID   CLOUDY    33  22  63 CALM      30.03S
WALLA WALLA    CLOUDY    33  28  81 NW6       30.01S
PENDLETON, OR  FLURRIES  34  26  72 CALM      29.98F
$$




USA.gov is the U.S. government's official web portal to all federal, state and local government web resources and services.